Weather History for Ardmore, OK

Change the Weather History Date:

Thursday, May 3, 2012

  Actual Average Record
Temperature  
Mean Temperature 76 °F -  
Max Temperature 89 °F 77 °F 89 °F (2012)
Min Temperature 64 °F 57 °F 32 °F (2011)
Cooling Degree Days 12    
Growing Degree Days 26 (Base 50)    
Moisture  
Dew Point 66 °F    
Average Humidity 87    
Maximum Humidity 100    
Minimum Humidity 55    
Precipitation  
Precipitation 0.00 in - - ()
Sea Level Pressure  
Sea Level Pressure 29.86 in    
Wind  
Wind Speed 5 mph (SE)    
Max Wind Speed 13 mph    
Max Gust Speed 17 mph    
Visibility 10 miles    
Events      
Averages and records for this station are not official NWS values.
T = Trace of Precipitation, MM = Missing Value Source: NWS Daily Summary

Daily Weather History Graph

Daily Weather History Graph

Search for Another Location

Airport:

Trip Planner

Search our weather history database for the weather conditions in past years. The results will help you decide how hot, cold, wet, or windy it might be!

Date:

Astronomy

May. 03, 2012 Rise Set
Actual Time 6:35 AM CDT 8:14 PM CDT
Civil Twilight 6:08 AM CDT 8:41 PM CDT
Nautical Twilight 5:36 AM CDT 9:13 PM CDT
Astronomical Twilight 5:02 AM CDT 9:48 PM CDT
Moon 5:45 PM CDT (5/3) 4:33 AM CDT (5/3)
Length of Visible Light 14h 32m
Length of Day
13h 38m
Waxing Gibbous, 91% of the Moon is Illuminated
May 3
Waxing Gibbous
May 5
Full
May 12
Last Quarter
May 20
New
May 28
First Quarter

Hourly Weather History & Observations

Time (CDT) Temp. Heat Index Dew Point Humidity Pressure Visibility Wind Dir Wind Speed Gust Speed Precip Events Conditions
12:15 AM 71.6 °F - 66.2 °F 83% 29.86 in 10.0 mi SE 6.9 mph - N/A   Clear
12:35 AM 69.8 °F - 66.2 °F 88% 29.87 in 10.0 mi SE 4.6 mph - N/A   Clear
12:55 AM 69.8 °F - 66.2 °F 88% 29.87 in 10.0 mi SE 3.5 mph - N/A   Clear
1:15 AM 69.8 °F - 66.2 °F 88% 29.87 in 10.0 mi SE 4.6 mph - N/A   Clear
1:35 AM 69.8 °F - 66.2 °F 88% 29.86 in 10.0 mi SE 4.6 mph - N/A   Clear
1:55 AM 69.8 °F - 64.4 °F 83% 29.85 in 10.0 mi SE 5.8 mph - N/A   Clear
2:15 AM 69.8 °F - 64.4 °F 83% 29.85 in 10.0 mi SE 4.6 mph - N/A   Clear
2:35 AM 68.0 °F - 64.4 °F 88% 29.85 in 10.0 mi SE 4.6 mph - N/A   Clear
2:55 AM 68.0 °F - 64.4 °F 88% 29.85 in 10.0 mi SE 4.6 mph - N/A   Clear
3:15 AM 68.0 °F - 64.4 °F 88% 29.85 in 10.0 mi Calm Calm - N/A   Clear
3:35 AM 64.4 °F - 64.4 °F 100% 29.84 in 10.0 mi Calm Calm - N/A   Clear
3:55 AM 64.4 °F - 64.4 °F 100% 29.85 in 10.0 mi Calm Calm - N/A   Clear
4:15 AM 64.4 °F - 62.6 °F 94% 29.85 in 10.0 mi SE 3.5 mph - N/A   Clear
4:35 AM 64.4 °F - 64.4 °F 100% 29.85 in 10.0 mi SE 4.6 mph - N/A   Clear
4:55 AM 66.2 °F - 64.4 °F 94% 29.84 in 10.0 mi SE 4.6 mph - N/A   Clear
5:15 AM 68.0 °F - 64.4 °F 88% 29.84 in 10.0 mi SE 3.5 mph - N/A   Clear
5:35 AM 68.0 °F - 64.4 °F 88% 29.85 in 10.0 mi SE 5.8 mph - N/A   Clear
5:55 AM 68.0 °F - 64.4 °F 88% 29.85 in 10.0 mi SSE 3.5 mph - N/A   Clear
6:15 AM 66.2 °F - 64.4 °F 94% 29.85 in 10.0 mi SE 4.6 mph - N/A   Clear
6:35 AM 66.2 °F - 64.4 °F 94% 29.85 in 10.0 mi SE 3.5 mph - N/A   Clear
7:55 AM 73.4 °F - 68.0 °F 83% 29.89 in 10.0 mi South 5.8 mph - N/A   Clear
8:55 AM 73.4 °F - 68.0 °F 83% 29.90 in 10.0 mi South 8.1 mph - N/A   Clear
10:55 AM 80.6 °F 83.9 °F 69.8 °F 70% 29.90 in 10.0 mi South 12.7 mph 17.3 mph N/A   Clear
5:55 PM 89.6 °F 96.2 °F 71.6 °F 55% 29.82 in 10.0 mi SSE 10.4 mph - N/A   Clear
11:35 PM 77.0 °F - 69.8 °F 78% 29.92 in 10.0 mi South 6.9 mph - N/A   Clear
11:55 PM 77.0 °F - 69.8 °F 78% 29.92 in 10.0 mi SSE 5.8 mph - N/A   Clear